GW2271 Weather Reports


time (UTC)temp
F
wind
direction
speed
knots
gust
knots
rain 1hr
in
rain 24hr
in
rain mn
in
humidity
%
barometer
mb
20260906140105 0 0 0.0 2.6 0.00 0.00 0.00 1018.0
20260906134603 0 92 0.0 1.7 0.00 0.00 0.00 1017.9
20260906133054 0 0 0.0 1.7 0.00 0.00 0.00 1018.1
20260906131549 0 0 0.0 1.7 0.00 0.00 0.00 1018.2
20260906130106 0 0 0.0 0.9 0.00 0.00 0.00 1018.0
20260906124554 0 0 0.0 0.9 0.00 0.00 0.00 1017.8
20260906123050 0 0 0.0 0.0 0.00 0.00 0.00 1017.8
20260906121600 0 0 0.0 0.0 0.00 0.00 0.00 1017.5
20260906120054 0 0 0.0 0.9 0.00 0.00 0.00 1017.4
20260906114601 0 0 0.0 0.0 0.00 0.00 0.00 1017.2
20260906113102 0 0 0.0 0.0 0.00 0.00 0.00 1017.0
20260906111549 0 0 0.0 0.0 0.00 0.00 0.00 1016.8
20260906110051 0 0 0.0 0.0 0.00 0.00 0.00 1016.8
20260906104552 0 0 0.0 1.7 0.00 0.00 0.00 1016.5
20260906103050 0 0 0.0 0.0 0.00 0.00 0.00 1016.3
20260906101550 0 0 0.0 0.9 0.00 0.00 0.00 1016.3
20260906100054 0 0 0.0 0.9 0.00 0.00 0.00 1016.2
20260906094554 0 0 0.0 0.9 0.00 0.00 0.00 1016.0
20260906093044 0 0 0.0 0.9 0.00 0.00 0.00 1016.0
20260906091556 0 0 0.0 1.7 0.00 0.00 0.00 1015.9
20260906090052 0 64 0.0 3.5 0.00 0.00 0.00 1015.8
20260906084559 0 0 0.0 2.6 0.00 0.00 0.00 1015.9
20260906083056 0 0 0.9 5.2 0.00 0.00 0.00 1015.9
20260906081555 0 0 0.0 3.5 0.00 0.00 0.00 1015.9
20260906080051 0 0 0.9 5.2 0.00 0.00 0.00 1016.1
20260906074552 0 66 0.0 2.6 0.00 0.00 0.00 1016.2
20260906073055 0 0 0.0 1.7 0.00 0.00 0.00 1016.0
20260906071550 0 0 0.0 1.7 0.00 0.00 0.00 1015.9
20260906070045 0 0 0.0 2.6 0.00 0.00 0.00 1016.0
20260906064552 0 0 0.0 0.9 0.00 0.00 0.00 1016.3
20260906063053 0 0 0.0 1.7 0.00 0.00 0.00 1016.2
20260906061559 0 0 0.0 0.9 0.00 0.00 0.00 1016.1
20260906060147 0 0 0.0 0.0 0.00 0.00 0.00 1016.2
20260906054553 0 0 0.0 0.0 0.00 0.00 0.00 1016.0
20260906053101 0 0 0.0 0.0 0.00 0.00 0.00 1015.9
20260906051549 0 0 0.0 0.9 0.00 0.00 0.00 1015.7
20260906050112 0 0 0.0 1.7 0.00 0.00 0.00 1015.5
20260906044553 0 0 0.0 0.0 0.00 0.00 0.00 1015.3
20260906043049 0 63 0.0 2.6 0.00 0.00 0.00 1015.2
20260906041557 0 0 0.0 0.9 0.00 0.00 0.00 1015.1
20260906040052 0 0 0.0 2.6 0.00 0.00 0.00 1015.0
20260906034557 0 0 0.0 1.7 0.00 0.00 0.00 1015.0
20260906033056 0 86 0.0 2.6 0.00 0.00 0.00 1014.7
20260906031617 0 88 0.0 2.6 0.00 0.00 0.00 1014.7
20260906030053 0 29 0.9 5.2 0.00 0.00 0.00 1014.7
20260906024554 0 0 0.0 5.2 0.00 0.00 0.00 1014.6
20260906023106 0 0 0.0 4.3 0.00 0.00 0.00 1014.4
20260906021557 0 0 0.0 1.7 0.00 0.00 0.00 1014.1
20260906020059 0 0 0.0 2.6 0.00 0.00 0.00 1013.9
20260906014549 0 54 0.0 3.5 0.00 0.00 0.00 1013.6
20260906013051 0 0 0.0 0.9 0.00 0.00 0.00 1013.5
20260906011553 0 0 0.0 0.0 0.00 0.00 0.00 1013.4
20260906010050 0 0 0.0 0.0 0.00 0.00 0.00 1013.3
20260906004559 0 0 0.0 0.0 0.00 0.00 0.00 1013.2
20260906003053 0 0 0.0 0.0 0.00 0.00 0.00 1013.1
20260906001559 0 0 0.0 0.0 0.00 0.00 0.00 1013.1
20260906000058 0 0 0.0 0.9 0.00 0.00 0.00 1012.9
20260905234556 0 0 0.0 0.9 0.00 0.00 0.00 1013.1
20260905233052 0 0 0.0 0.0 0.00 0.00 0.00 1012.9
20260905231551 0 0 0.0 0.9 0.00 0.00 0.00 1012.9
20260905230059 0 0 0.0 1.7 0.00 0.00 0.00 1012.7
20260905224549 0 0 0.0 0.9 0.00 0.00 0.00 1012.9
20260905223055 0 0 0.0 0.0 0.00 0.00 0.00 1012.9
20260905221601 0 0 0.0 0.0 0.00 0.00 0.00 1012.9
20260905220048 0 0 0.0 0.9 0.00 0.00 0.00 1012.8
20260905214602 0 0 0.0 0.9 0.00 0.00 0.00 1012.8
20260905213048 0 0 0.0 0.9 0.00 0.00 0.00 1012.9
20260905211600 0 0 0.0 0.9 0.00 0.00 0.00 1012.8
20260905210106 0 0 0.0 0.0 0.00 0.00 0.00 1013.0
20260905204550 0 0 0.0 0.9 0.00 0.00 0.00 1013.1
20260905203049 0 0 0.0 0.0 0.00 0.00 0.00 1013.2
20260905201548 0 0 0.0 0.9 0.00 0.00 0.00 1013.4
20260905200055 0 0 0.0 1.7 0.00 0.00 0.00 1013.5
20260905194553 0 0 0.0 0.9 0.00 0.00 0.00 1013.6
20260905193050 0 0 0.0 0.9 0.00 0.00 0.00 1013.7
20260905191546 0 0 0.0 1.7 0.00 0.00 0.00 1013.6
20260905190054 0 0 0.0 1.7 0.00 0.00 0.00 1013.5
20260905184600 0 208 0.0 3.5 0.00 0.00 0.00 1013.6
20260905183050 0 213 0.9 3.5 0.00 0.00 0.00 1013.7
20260905181559 0 0 0.0 2.6 0.00 0.00 0.00 1013.8
20260905180111 0 0 0.0 2.6 0.00 0.00 0.00 1013.9
20260905174553 0 232 0.0 2.6 0.00 0.00 0.00 1014.2
20260905173113 0 0 0.0 1.7 0.00 0.00 0.00 1014.3
20260905171556 0 0 0.0 3.5 0.00 0.00 0.00 1014.4
20260905170049 0 213 0.0 2.6 0.00 0.00 0.00 1014.3
20260905164552 0 225 0.9 3.5 0.00 0.00 0.00 1014.3
20260905163053 0 0 0.0 1.7 0.00 0.00 0.00 1014.4
20260905161550 0 0 0.0 3.5 0.00 0.00 0.00 1014.3
20260905160104 0 0 0.9 2.6 0.00 0.00 0.00 1014.2
20260905154601 0 0 0.0 3.5 0.00 0.00 0.00 1014.2
20260905153050 0 0 0.0 2.6 0.00 0.00 0.00 1014.2
20260905151557 0 0 0.0 1.7 0.00 0.00 0.00 1014.1
20260905150059 0 0 0.0 3.5 0.00 0.00 0.00 1013.9
20260905144552 0 103 0.0 4.3 0.00 0.00 0.00 1013.8
20260905143101 0 0 0.0 0.0 0.00 0.00 0.00 1013.9
20260905141552 0 0 0.0 0.0 0.00 0.00 0.00 1013.7